Вернуться в каталог

SL-8 R/B

АктивенPO
NORAD 7350·ROCKET BODY·🇷🇺 Russia

Запущен Jun 27, 1974 с Plesetsk Cosmodrome

Loading…

Ближайшие Пролёты (ближайшие 24 часа)

TLE

СвежийSource: Space-Track

Эпоха: Sep 14, 2026, 22:12 UTC

1 07350U 74048B   26257.92524281  .00000147  00000-0  13094-3 0  9995
2 07350  82.9432  50.9815 0016310 201.7961 325.1786 13.78045990624639

Отслеживайте SL-8 R/B в реальном времени с AllMySat

Download on the App Store